Find Starlink 36262

NORAD ID: 67201 Int'l Des: 2025-304 Owner: SPXS Country: US Constellation: starlink operational
LEOCIRCULAR

Live-Position

3D-Globus wird geladen...

Über Starlink 36262

Beschreibung wird geladen...

Nächste Überflüge

Passes for default location (London). Set your location on the main map for personalized predictions.

Höhenverlauf

Loading altitude history...

Zweizeiliger Elementsatz

1 67201U 25304K 26104.89231183 .00003075 00000-0 26538-3 0 9990
2 67201 69.9998 83.3315 0002897 271.5105 88.5722 14.98336871 19303
Epoch: 14. Apr. 2026 • Age: 11 hours

Aktueller Status

Höhe 585.1 km
Geschwindigkeit 7.57 km/s
Subsatellitenpunkt -39.42°S, 94.71°E
Startdatum 17. Dez. 2025
Alter 0.3 years
Typ internet

Technische Details

Klassifizierung Payload
Masse 575.00 kg
Trockenmasse 530.00 kg
Gesamtmasse 575.00 kg
Länge 0.30 m
Durchmesser 4.10 m
Spannweite 29.00 m
Form Box + pan
Hersteller SPXS
Bus-Typ Starlink V2MO
Phasenstatus In Orbit
Besitzer/Staat SPXS/US

Most Searched